This is the latest recevied weather packets stored in our database for station/object EA6AMR-10. If no packets are shown the sender has not sent any weather packets the latest 10 day(s).
| Time | Temp. | Humidity | Pressure | Rain* | Wind** | Luminosity | Snow |
|---|---|---|---|---|---|---|---|
| 1777850981 | 19.44° C | 64% | 1014.6 hPa | - | - | - | - |
| 1777850081 | 20° C | 64% | 1014.5 hPa | - | - | - | - |
| 1777849180 | 20° C | 64% | 1014.6 hPa | - | - | - | - |
| 1777848280 | 20° C | 64% | 1014.5 hPa | - | - | - | - |
| 1777847380 | 20° C | 64% | 1014.4 hPa | - | - | - | - |
| 1777846480 | 20° C | 64% | 1014.1 hPa | - | - | - | - |
| 1777845580 | 20° C | 64% | 1014 hPa | - | - | - | - |
| 1777844680 | 20° C | 64% | 1014 hPa | - | - | - | - |
| 1777843779 | 20° C | 64% | 1013.9 hPa | - | - | - | - |
| 1777842879 | 20° C | 64% | 1014 hPa | - | - | - | - |
| 1777841979 | 20° C | 64% | 1014 hPa | - | - | - | - |
| 1777841078 | 19.44° C | 65% | 1014 hPa | - | - | - | - |
| 1777840183 | 20° C | 64% | 1013.7 hPa | - | - | - | - |
| 1777839283 | 20° C | 64% | 1013.7 hPa | - | - | - | - |
| 1777838382 | 20° C | 65% | 1013.8 hPa | - | - | - | - |
| 1777837482 | 20° C | 65% | 1013.6 hPa | - | - | - | - |
| 1777836582 | 20° C | 65% | 1013.5 hPa | - | - | - | - |
| 1777835682 | 20° C | 66% | 1013.6 hPa | - | - | - | - |
| 1777834783 | 20° C | 66% | 1013.8 hPa | - | - | - | - |
| 1777833881 | 20.56° C | 66% | 1013.8 hPa | - | - | - | - |
| 1777832981 | 20.56° C | 66% | 1013.7 hPa | - | - | - | - |
| 1777832081 | 21.11° C | 65% | 1013.8 hPa | - | - | - | - |
| 1777831181 | 21.67° C | 65% | 1013.9 hPa | - | - | - | - |
| 1777830281 | 21.67° C | 65% | 1014 hPa | - | - | - | - |
| 1777829380 | 22.22° C | 66% | 1013.9 hPa | - | - | - | - |
* Rain since midnight (hover to see other rain measurements)
** Current wind speed in m/s (hover to see current wind gust speed)